2023/02/11 00:00:00,57.9, 2.2
2023/02/11 00:10:00,57.9, 2.2
2023/02/11 00:20:00,58.0, 2.2
2023/02/11 00:30:00,58.0, 2.2
2023/02/11 00:40:00,58.0, 2.2
2023/02/11 00:50:00,58.0, 2.4
2023/02/11 01:00:00,58.0, 2.0
2023/02/11 01:10:00,58.0, 2.2
2023/02/11 01:20:00,58.0, 2.1
2023/02/11 01:30:00,57.9, 1.7
2023/02/11 01:40:00,57.8, 1.8
2023/02/11 01:50:00,57.8, 1.9
2023/02/11 02:00:00,57.6, 1.8
2023/02/11 02:10:00,57.5, 1.7
2023/02/11 02:20:00,57.2, 1.6
2023/02/11 02:30:00,56.7, 1.9
2023/02/11 02:40:00,56.5, 1.8
2023/02/11 02:50:00,56.5, 1.6
2023/02/11 03:00:00,56.3, 2.0
2023/02/11 03:10:00,56.1, 2.1
2023/02/11 03:20:00,55.8, 1.9
2023/02/11 03:30:00,55.6, 1.8
2023/02/11 03:40:00,55.6, 1.8
2023/02/11 03:50:00,55.6, 1.8
2023/02/11 04:00:00,55.6, 2.2
2023/02/11 04:10:00,55.7, 1.2
2023/02/11 04:20:00,55.7, 1.1
2023/02/11 04:30:00,56.0, 1.0
2023/02/11 04:40:00,56.1, 0.5
2023/02/11 04:50:00,56.0, 0.7
2023/02/11 05:00:00,55.9, 0.9
2023/02/11 05:10:00,56.0, 1.2
2023/02/11 05:20:00,56.1, 1.1
2023/02/11 05:30:00,55.8, 1.1
2023/02/11 05:40:00,55.4, 1.6
2023/02/11 05:50:00,55.3, 1.0
2023/02/11 06:00:00,55.3, 1.3
2023/02/11 06:10:00,55.4, 0.9
2023/02/11 06:20:00,55.4, 1.0
2023/02/11 06:30:00,55.6, 0.7
2023/02/11 06:40:00,55.5,-0.1
2023/02/11 06:50:00,55.4, 0.2
2023/02/11 07:00:00,55.2, 0.4
2023/02/11 07:10:00,55.2, 0.3
2023/02/11 07:20:00,55.3, 0.1
2023/02/11 07:30:00,55.3, 0.0
2023/02/11 07:40:00,55.3, 0.0
2023/02/11 07:50:00,55.3, 0.4
2023/02/11 08:00:00,55.3, 0.3
2023/02/11 08:10:00,55.3, 0.3
2023/02/11 08:20:00,55.3, 0.5
2023/02/11 08:30:00,55.3, 0.7
2023/02/11 08:40:00,55.2, 0.7
2023/02/11 08:50:00,55.2, 1.4
2023/02/11 09:00:00,55.1, 1.8
2023/02/11 09:10:00,55.0, 6.4
2023/02/11 09:20:00,55.0, 9.5
2023/02/11 09:30:00,55.0,11.2
2023/02/11 09:40:00,55.0, 6.9
2023/02/11 09:50:00,55.0, 4.6
2023/02/11 10:00:00,54.7, 9.6
2023/02/11 10:10:00,54.6, 9.9
2023/02/11 10:20:00,54.7,11.5
2023/02/11 10:30:00,54.7, 7.4
2023/02/11 10:40:00,54.8, 6.2
2023/02/11 10:50:00,54.8, 5.4
2023/02/11 11:00:00,54.9, 5.6
2023/02/11 11:10:00,54.7, 6.7
2023/02/11 11:20:00,54.2, 8.1
2023/02/11 11:30:00,54.2, 9.0
2023/02/11 11:40:00,54.3, 7.4
2023/02/11 11:50:00,54.1, 6.6
2023/02/11 12:00:00,53.7, 6.0
2023/02/11 12:10:00,53.7, 6.3
2023/02/11 12:20:00,53.8, 6.3
2023/02/11 12:30:00,53.8, 5.5
2023/02/11 12:40:00,53.9, 6.1
2023/02/11 12:50:00,53.7, 6.1
2023/02/11 13:00:00,53.4, 8.2
2023/02/11 13:10:00,53.2, 7.5
2023/02/11 13:20:00,53.4, 7.9
2023/02/11 13:30:00,53.3, 7.1
2023/02/11 13:40:00,53.1, 6.7
2023/02/11 13:50:00,52.4, 7.3
2023/02/11 14:00:00,52.7, 6.2
2023/02/11 14:10:00,52.9, 5.5
2023/02/11 14:20:00,53.0, 5.0
2023/02/11 14:30:00,52.2, 5.7
2023/02/11 14:40:00,52.6, 6.1
2023/02/11 14:50:00,52.7, 5.0
2023/02/11 15:00:00,52.8, 4.4
2023/02/11 15:10:00,52.9, 3.9
2023/02/11 15:20:00,52.9, 4.3
2023/02/11 15:30:00,53.0, 4.1
2023/02/11 15:40:00,53.2, 3.7
2023/02/11 15:50:00,52.8, 3.2
2023/02/11 16:00:00,53.0, 2.9
2023/02/11 16:10:00,53.0, 2.3
2023/02/11 16:20:00,53.0, 2.5
2023/02/11 16:30:00,53.1, 2.3
2023/02/11 16:40:00,53.0, 2.1
2023/02/11 16:50:00,52.9, 2.1
2023/02/11 17:00:00,53.0, 1.8
2023/02/11 17:10:00,53.2, 1.6
2023/02/11 17:20:00,53.0, 1.0
2023/02/11 17:30:00,53.0, 0.8
2023/02/11 17:40:00,53.2, 0.7
2023/02/11 17:50:00,53.3, 0.6
2023/02/11 18:00:00,53.3, 0.6
2023/02/11 18:10:00,53.2, 0.5
2023/02/11 18:20:00,53.2, 0.3
2023/02/11 18:30:00,53.3, 0.1
2023/02/11 18:40:00,53.3, 0.0
2023/02/11 18:50:00,53.4, 0.0
2023/02/11 19:00:00,53.4,-0.2
2023/02/11 19:10:00,53.2,-0.1
2023/02/11 19:20:00,53.2, 0.0
2023/02/11 19:30:00,53.2, 0.0
2023/02/11 19:40:00,53.1,-0.1
2023/02/11 19:50:00,53.1, 0.2
2023/02/11 20:00:00,53.1, 0.3
2023/02/11 20:10:00,53.1, 0.0
2023/02/11 20:20:00,53.2,-0.1
2023/02/11 20:30:00,53.2, 0.2
2023/02/11 20:40:00,53.2, 0.1
2023/02/11 20:50:00,53.2,-0.1
2023/02/11 21:00:00,53.2, 0.3
2023/02/11 21:10:00,53.2, 0.0
2023/02/11 21:20:00,53.1, 0.1
2023/02/11 21:30:00,53.0, 0.0
2023/02/11 21:40:00,53.0, 0.0
2023/02/11 21:50:00,53.0, 0.2
2023/02/11 22:00:00,52.9,-0.1
2023/02/11 22:10:00,53.0, 0.2
2023/02/11 22:20:00,53.0,-0.1
2023/02/11 22:30:00,53.0,-0.2
2023/02/11 22:40:00,53.0,-0.5
2023/02/11 22:50:00,53.1,-0.6
2023/02/11 23:00:00,53.2,-0.8
2023/02/11 23:10:00,53.4,-0.7
2023/02/11 23:20:00,53.2,-0.5
2023/02/11 23:30:00,53.2,-0.1
2023/02/11 23:40:00,53.0,-0.3
2023/02/11 23:50:00,53.0,-0.4
